[[{"header":{"parameterUnit":"m.s-1","parameterCategory":1,"la1":30.2991,"la2":30.254,"lo1":-89.0895,"lo2":-89.0444,"dy":0.0017,"dx":0.0017,"nx":28,"ny":28,"refTime":"2025-01-27T09:00:00:Z","depth":0,"parameterNumber":2,"parameterNumberName":"U-component_of_WINDS"},"data":[0,0,0,0,0,0,0,0,0,0,0,0,0,0,0,0,0,0,0,0,0,0,0,0,0,0,0,0,0,0,0,0,0,0,0,0,0,0,0,0,0,0,0,0,0,0,0,0,0,0,0,0,0,0,0,0,0,0,0.1663,0.1664,0,0.1712,0.1712,0.1713,0.1754,0.1754,0.1755,0.1755,0.1805,0.1806,0.1807,0,0,0,0,0,0,0,0,0,0,0,0,0,0.1605,0.1606,0.1663,0.1664,0.1664,0.1712,0.1712,0.1713,0.1754,0.1754,0.1755,0.1755,0.1805,0.1806,0.1807,0,0,0,0,0,0,0,0,0,0,0,0,0,0.1639,0.1606,0.1663,0.169,0.1693,0.1712,0.1712,0.1713,0.1754,0.1754,0.1755,0.1756,0.1804,0.1806,0.1807,0.1802,0,0,0.1811,0.1812,0,0,0,0,0,0,0,0,0.1637,0.1641,0.1686,0.1689,0.1692,0.1727,0.171,0.1743,0.1753,0.1731,0.1755,0.1756,0.1779,0.1782,0.179,0.1804,0.1806,0.1811,0.1812,0.1813,0.1813,0,0,0,0,0,0,0,0.1635,0.164,0.1683,0.1686,0.169,0.17,0.1706,0.1716,0.175,0.1733,0.1736,0.1741,0.178,0.1788,0.1791,0.1807,0.1811,0.1812,0.1813,0.1814,0.1818,0.1817,0,0,0,0,0,0,0.1628,0.1637,0.1681,0.1684,0.1666,0.17,0.1707,0.1715,0.175,0.1756,0.174,0.1743,0.1786,0.179,0.1793,0.1788,0.1813,0.1814,0.1815,0.1819,0.1818,0.1817,0,0,0,0,0,0,0.1627,0.1632,0.1679,0.1661,0.1668,0.1701,0.171,0.1716,0.1724,0.1756,0.1762,0.1742,0.1786,0.1791,0.1799,0.1791,0.1814,0.1816,0.1819,0.1818,0.1817,0.1779,0,0,0,0,0,0,0.1625,0.1631,0.163,0.1661,0.1669,0.1684,0.171,0.1716,0.1726,0.173,0.176,0.1765,0.1787,0.1797,0.18,0.1793,0.1817,0.182,0.1819,0.1818,0.1781,0.1777,0.1773,0,0,0,0,0,0.1623,0.1618,0.163,0.1635,0.1668,0.1684,0.1688,0.1714,0.1725,0.1724,0.1744,0.1764,0.1791,0.1797,0.1802,0.1794,0.1821,0.1819,0.1818,0.1783,0.1778,0.1773,0,0,0,0,0,0,0.1585,0.1622,0.1636,0.1641,0.1659,0.1691,0.169,0.1708,0.1723,0.1725,0.1756,0.1763,0.1767,0.1782,0.1788,0.179,0.1808,0.1808,0.178,0.1776,0.1772,0.1768,0.1818,0,0,0,0,0,0.1577,0.1587,0.1619,0.162,0.1628,0.1657,0.1665,0.1683,0.1703,0.1711,0.1732,0.175,0.1762,0.177,0.1783,0.1784,0.179,0.1781,0.1777,0.1773,0.1772,0.1771,0.1767,0.1812,0.1812,0.1812,0,0,0.1561,0.1583,0.1587,0.1613,0.1629,0.1638,0.1664,0.1672,0.1679,0.1712,0.172,0.1736,0.1759,0.1762,0.1765,0.1774,0.1761,0.1771,0.1768,0.1769,0.1769,0.1765,0.1761,0.1811,0.1811,0.1811,0,0,0.1537,0.1554,0.1556,0.1572,0.1595,0.1614,0.1614,0.1643,0.1655,0.1664,0.1688,0.1696,0.1718,0.1732,0.1742,0.172,0.1739,0.1724,0.1703,0.1702,0.1698,0.1695,0.1686,0.1683,0.1723,0.1723,0.1723,0,0.1514,0.1528,0.1555,0.1562,0.1572,0.1602,0.1603,0.1617,0.1644,0.1649,0.166,0.1686,0.1703,0.171,0.1704,0.1712,0.1712,0.1721,0.1696,0.1694,0.1691,0.1683,0.168,0.1721,0.1721,0.1721,0.1721,0,0.1498,0.1508,0.1506,0.1531,0.1541,0.1545,0.1572,0.1578,0.1595,0.1612,0.162,0.1642,0.1659,0.1662,0.1679,0.167,0.1675,0.1691,0.1709,0.1684,0.1677,0.1674,0.1718,0.1719,0.1719,0.172,0,0,0.1452,0.149,0.1489,0.1499,0.1527,0.1534,0.1539,0.1556,0.156,0.1577,0.1581,0.1597,0.1611,0.1623,0.1641,0.164,0.162,0.1656,0.1657,0.1647,0.161,0.1597,0.1593,0.1632,0.1632,0.1631,0.1607,0,0.143,0.1441,0.1465,0.1467,0.1475,0.1503,0.1507,0.1524,0.154,0.1549,0.1567,0.1578,0.1596,0.1603,0.1603,0.1622,0.1613,0.1624,0.1635,0.1635,0.1628,0.159,0.1577,0.1553,0.1605,0.1605,0.1604,0,0.1407,0.1421,0.1425,0.145,0.1455,0.1458,0.1474,0.1482,0.1501,0.1513,0.1525,0.1545,0.155,0.1568,0.1575,0.1582,0.1588,0.1598,0.1598,0.1599,0.1618,0.1589,0.1547,0.1542,0.16,0.1601,0.1601,0,0.1371,0.1391,0.1396,0.1404,0.1434,0.1435,0.1448,0.1468,0.1475,0.149,0.1495,0.1509,0.1517,0.1527,0.155,0.1561,0.1554,0.1574,0.1563,0.1563,0.156,0.156,0.1517,0.1566,0.1566,0.1566,0.1566,0,0.1344,0.1345,0.1379,0.1382,0.1383,0.141,0.141,0.1425,0.1442,0.1447,0.1473,0.1477,0.1507,0.1515,0.1533,0.1535,0.1539,0.1548,0.1552,0.1545,0.1543,0.1549,0.155,0.1565,0.1565,0.1565,0.1565,0,0.1304,0.1327,0.1333,0.1361,0.1368,0.1367,0.139,0.1393,0.1411,0.1417,0.142,0.1447,0.1457,0.1481,0.1497,0.1509,0.1506,0.1516,0.15,0.1502,0.149,0.149,0.1448,0.1443,0.1495,0.1495,0.1494,0,0.1285,0.1286,0.1313,0.1318,0.1329,0.1338,0.1346,0.1372,0.1379,0.1399,0.1399,0.1411,0.1422,0.1436,0.1457,0.1469,0.1478,0.1463,0.1481,0.1472,0.1477,0.1476,0.1475,0.1459,0.1458,0.1457,0.1457,0,0.1248,0.1259,0.1269,0.1283,0.1292,0.1304,0.1317,0.132,0.1349,0.1356,0.1366,0.1374,0.139,0.1401,0.1416,0.1429,0.1447,0.1451,0.1449,0.1441,0.1431,0.1435,0.1488,0.1452,0.1452,0.1453,0.1453,0.1453,0.1217,0.1218,0.1237,0.1247,0.126,0.1272,0.1275,0.1293,0.1302,0.1317,0.1331,0.134,0.1357,0.1379,0.139,0.1396,0.1406,0.1403,0.1403,0.1401,0.1397,0.1431,0.1399,0.14,0.14,0.14,0.14,0,0.118,0.1193,0.1202,0.122,0.1227,0.1244,0.126,0.1265,0.1272,0.1286,0.1296,0.1307,0.1317,0.1338,0.135,0.1351,0.1359,0.1353,0.1353,0.1355,0.1389,0.1389,0.1346,0.1346,0.1346,0.1346,0.1346,0.1346,0.1161,0.1164,0.1177,0.1186,0.12,0.1208,0.1215,0.1225,0.1237,0.1248,0.1256,0.127,0.1287,0.13,0.1309,0.1315,0.1318,0.1308,0.1317,0.1348,0.1353,0.1358,0.1358,0.1309,0.1309,0.1282,0.1282,0.1282]},{"header":{"parameterUnit":"m.s-1","parameterCategory":1,"la1":30.2991,"la2":30.254,"lo1":-89.0895,"lo2":-89.0444,"dy":0.0017,"dx":0.0017,"nx":28,"ny":28,"refTime":"2025-01-27T09:00:00:Z","depth":0,"parameterNumber":3,"parameterNumberName":"V-component_of_WINDS"},"data":[0,0,0,0,0,0,0,0,0,0,0,0,0,0,0,0,0,0,0,0,0,0,0,0,0,0,0,0,0,0,0,0,0,0,0,0,0,0,0,0,0,0,0,0,0,0,0,0,0,0,0,0,0,0,0,0,0,0,1.6153,1.6153,0,1.6163,1.6163,1.6163,1.6189,1.619,1.6191,1.6191,1.6198,1.6197,1.6197,0,0,0,0,0,0,0,0,0,0,0,0,0,1.6154,1.6154,1.6153,1.6153,1.6153,1.6163,1.6163,1.6163,1.6189,1.619,1.6191,1.6191,1.6198,1.6198,1.6197,0,0,0,0,0,0,0,0,0,0,0,0,0,1.6158,1.6154,1.6153,1.6167,1.6169,1.6163,1.6163,1.6163,1.6189,1.619,1.6191,1.6192,1.6198,1.6198,1.6197,1.6176,0,0,1.6195,1.6195,0,0,0,0,0,0,0,0,1.6157,1.6158,1.6165,1.6166,1.6168,1.6176,1.6166,1.6167,1.6189,1.6181,1.6191,1.6192,1.619,1.619,1.619,1.6177,1.6177,1.6195,1.6195,1.6195,1.6195,0,0,0,0,0,0,0,1.6157,1.6157,1.6157,1.6165,1.6167,1.6173,1.6174,1.6166,1.618,1.6182,1.6184,1.6185,1.619,1.619,1.619,1.6177,1.6195,1.6195,1.6195,1.6194,1.6148,1.6147,0,0,0,0,0,0,1.6155,1.6157,1.6156,1.6157,1.6165,1.6172,1.6174,1.6172,1.6181,1.6183,1.6184,1.6186,1.6191,1.6191,1.619,1.6167,1.6195,1.6194,1.6194,1.6149,1.6148,1.6147,0,0,0,0,0,0,1.6155,1.6155,1.6156,1.6157,1.6158,1.6171,1.6169,1.6172,1.6172,1.6182,1.6185,1.6181,1.6191,1.6191,1.618,1.6168,1.6194,1.6194,1.615,1.6149,1.6148,1.612,0,0,0,0,0,0,1.6155,1.6155,1.6148,1.6157,1.6158,1.6146,1.6169,1.6172,1.6171,1.6174,1.618,1.6182,1.6192,1.6181,1.618,1.6167,1.6193,1.6151,1.615,1.6148,1.6122,1.6118,1.6115,0,0,0,0,0,1.6155,1.6139,1.6147,1.6147,1.6149,1.6145,1.6146,1.6158,1.617,1.6163,1.617,1.6182,1.6169,1.6179,1.6178,1.6166,1.6152,1.615,1.6148,1.6124,1.6119,1.6115,0,0,0,0,0,0,1.6126,1.614,1.615,1.6136,1.614,1.615,1.6141,1.6153,1.6152,1.6154,1.6169,1.617,1.6157,1.616,1.6171,1.6147,1.6163,1.616,1.6145,1.614,1.6136,1.6136,1.6193,0,0,0,0,0,1.6118,1.6115,1.6127,1.6114,1.6115,1.6128,1.6126,1.6136,1.614,1.6141,1.6147,1.6149,1.6146,1.6143,1.6141,1.6123,1.6125,1.6114,1.611,1.6107,1.6105,1.6096,1.6091,1.614,1.614,1.6141,0,0,1.6101,1.6109,1.6105,1.6108,1.6112,1.6107,1.6129,1.6123,1.6119,1.614,1.613,1.6135,1.6138,1.6124,1.6118,1.6126,1.6091,1.6104,1.6102,1.6101,1.6093,1.6089,1.6084,1.6139,1.6139,1.614,0,0,1.6069,1.6074,1.6064,1.6068,1.6074,1.6083,1.608,1.6089,1.6093,1.6084,1.61,1.6095,1.6089,1.6091,1.6091,1.6061,1.6072,1.6059,1.6039,1.603,1.6026,1.6023,1.6012,1.6008,1.6057,1.6057,1.6057,0,1.6047,1.6042,1.6057,1.6051,1.6051,1.6071,1.6061,1.6063,1.6067,1.6067,1.6077,1.607,1.6074,1.606,1.6053,1.6052,1.605,1.6058,1.6026,1.6023,1.602,1.6009,1.6005,1.6055,1.6055,1.6056,1.6056,0,1.6015,1.6011,1.6002,1.6007,1.6007,1.5998,1.6012,1.6009,1.6019,1.6026,1.6017,1.6022,1.6021,1.6019,1.6028,1.6007,1.6012,1.6023,1.604,1.6013,1.6004,1.6,1.6053,1.6054,1.6054,1.6054,0,0,1.5964,1.5979,1.5975,1.5978,1.5986,1.5983,1.5975,1.5976,1.5973,1.5976,1.5969,1.5964,1.5975,1.5976,1.5985,1.5977,1.5953,1.599,1.599,1.5983,1.593,1.5921,1.5917,1.5961,1.596,1.5959,1.593,0,1.5933,1.5922,1.5936,1.5921,1.5918,1.5937,1.593,1.5934,1.5941,1.5938,1.5945,1.5942,1.5957,1.5957,1.595,1.5957,1.5942,1.5959,1.5954,1.5954,1.5953,1.5912,1.5902,1.5874,1.5926,1.5926,1.5925,0,1.5896,1.5898,1.5884,1.5894,1.5893,1.5887,1.5889,1.5886,1.5891,1.5896,1.5897,1.5909,1.5901,1.5918,1.5908,1.5919,1.5918,1.5921,1.592,1.5919,1.5938,1.591,1.5866,1.5861,1.592,1.592,1.592,0,1.586,1.586,1.5851,1.5853,1.5864,1.586,1.5864,1.587,1.5869,1.5871,1.5871,1.587,1.587,1.5869,1.5881,1.5892,1.5869,1.5886,1.5872,1.5872,1.5866,1.5867,1.5821,1.5866,1.5866,1.5866,1.5866,0,1.5825,1.5815,1.5835,1.583,1.5819,1.5835,1.5824,1.583,1.5836,1.5831,1.5847,1.5843,1.5858,1.5855,1.5863,1.5853,1.5853,1.5857,1.5859,1.5855,1.5855,1.5854,1.5856,1.5865,1.5865,1.5865,1.5865,0,1.5783,1.5796,1.5788,1.58,1.5803,1.5795,1.5805,1.58,1.5808,1.5802,1.5802,1.5815,1.5812,1.5823,1.5822,1.5827,1.5813,1.5818,1.5812,1.5813,1.5799,1.58,1.5751,1.5746,1.5794,1.5794,1.5793,0,1.5759,1.5752,1.5764,1.5763,1.5767,1.5765,1.5765,1.578,1.578,1.5785,1.578,1.5778,1.5778,1.5773,1.5781,1.578,1.5786,1.5769,1.5785,1.5782,1.5785,1.5786,1.5785,1.5765,1.5764,1.5764,1.5763,0,1.5716,1.5723,1.5723,1.5726,1.5726,1.5728,1.5731,1.5729,1.5746,1.5744,1.5742,1.5742,1.5742,1.574,1.5741,1.5745,1.5756,1.5758,1.5755,1.5751,1.5747,1.5749,1.5802,1.5759,1.5759,1.576,1.576,1.576,1.5682,1.5677,1.5685,1.5685,1.569,1.5693,1.5689,1.5697,1.5696,1.5698,1.5707,1.5703,1.5708,1.5711,1.5714,1.5711,1.5719,1.5714,1.5713,1.5711,1.5709,1.5748,1.5711,1.5711,1.5711,1.5711,1.5711,0,1.564,1.5646,1.5646,1.5651,1.5651,1.5663,1.5668,1.5667,1.5664,1.5668,1.5668,1.5666,1.5665,1.5673,1.5673,1.5669,1.5674,1.5668,1.5669,1.5669,1.5702,1.5705,1.5664,1.5664,1.5664,1.5664,1.5664,1.5664,1.5618,1.561,1.5618,1.5613,1.5619,1.5617,1.5619,1.5621,1.5625,1.5622,1.5622,1.5628,1.5634,1.5635,1.5634,1.5637,1.5636,1.5628,1.5632,1.5662,1.5667,1.5671,1.5674,1.5627,1.5627,1.56,1.5599,1.5599]}]]